Погода в Ак-Чыраа

Россия / Республика Тыва     50°41′52″N   93°14′12″E
темп.,
°C
ветер,
м/с
пор.,
м/с
влажн.,
%
обл.,
%
осадки,
мм/ч
давл.,
гПа
погр.,
м
8 мая, сб
сб801:00+13с4560100 0.0 1008121
04:00+12ссв51066100 0.5 1010681
07:00+12с2655100 0.7 1012898
10:00+14зсз354245 0.0 10121409
13:00+16зюз353678 0.0 10112220
16:00+17зсз362780 0.0 10102507
19:00+16с68241 0.0 10122273
22:00+11ссв34430 0.0 101486
9 мая, вс
вс901:00+9ссв44510 0.0 101674
04:00+7с22541 0.0 101628
07:00+10сз01413 0.0 1016137
10:00+12ююз23391 0.0 10141221
13:00+15юз563016 0.0 10111804
16:00+18зюз5101975 0.0 10083044
19:00+17сз492032 0.0 10072063
22:00+11с46425 0.0 1009141
10 мая, пн
пн1001:00+9с59485 0.0 1009253
04:00+6ссв46723 0.0 1011158
07:00+5ссв675729 0.1 1014373
10:00+8с68383 0.0 10141153
13:00+10с9102423 0.0 10131600
16:00+11ссв892267 0.0 10121583
19:00+10ссв572485 0.0 10131124
22:00+7ссв3335100 0.0 101561
11 мая, вт
вт1101:00+5ссв3334100 0.0 101637
04:00+5ссв3232100 0.0 101525
07:00+6юз1131100 0.0 1015179
10:00+9ю1225100 0.0 10131147
13:00+12ю212175 0.0 10111461
16:00+13ююз322298 0.0 10091626
19:00+12юз322550 0.0 1008537
22:00+9ссз22345 0.0 100929
12 мая, ср
ср1201:00+8с22435 0.0 100918
04:00+7ссв224590 0.0 100820
07:00+9ссв1238100 0.0 100791
10:00+9зюз3245100 0.1 1008524
13:00+9ю125898 1.0 1007617
16:00+14ю233898 0.0 10041757
19:00+13ссв353930 0.0 10041394
22:00+8с81449100 0.0 1007652